When you browse on this site, cookies collect data to enhance your experience and personalize the content and advertising you see.
Visit our Privacy Policy to learn more. By continuing to use the site, you agree to this use of cookies and data.
  • In Hungary
  • List of Countries
  • For 7 days
  • Water Temperature
  • Satellite Maps
  • Weather Map
  • News
  • Weather Widgets
  • user-avatar
    Login

    Hourly Weather Tamiami

    Today, 15 December, Saturday

    Time Temperature Precipitation Wind Pressure Humidity
    00:00 +26°C° 0 mm 5 mps 762 mmHg 89%
    01:00 +26°C° 0 mm 5 mps 762 mmHg 90%
    02:00 +25°C° 0.6 mm 5 mps 762 mmHg 89%
    03:00 +25°C° 0.6 mm 5 mps 762 mmHg 89%
    04:00 +25°C° 0.6 mm 5 mps 762 mmHg 88%
    05:00 +25°C° 0.4 mm 4 mps 762 mmHg 88%
    06:00 +25°C° 0.4 mm 4 mps 762 mmHg 88%
    07:00 +24°C° 0.4 mm 3 mps 762 mmHg 88%
    08:00 +26°C° 0 mm 4 mps 763 mmHg 81%
    09:00 +27°C° 0 mm 4 mps 763 mmHg 74%
    10:00 +29°C° 0 mm 4 mps 763 mmHg 67%
    11:00 +30°C° 0.1 mm 4 mps 763 mmHg 62%
    12:00 +30°C° 0.1 mm 5 mps 763 mmHg 58%
    13:00 +32°C° 0.1 mm 5 mps 763 mmHg 54%
    14:00 +32°C° 0.1 mm 5 mps 762 mmHg 55%
    15:00 +30°C° 0.1 mm 5 mps 762 mmHg 56%
    16:00 +30°C° 0.1 mm 5 mps 762 mmHg 58%
    17:00 +28°C° 0 mm 5 mps 762 mmHg 63%
    18:00 +27°C° 0 mm 4 mps 763 mmHg 69%
    19:00 +25°C° 0 mm 3 mps 763 mmHg 74%
    20:00 +25°C° 0 mm 3 mps 764 mmHg 74%
    21:00 +24°C° 0 mm 3 mps 764 mmHg 75%
    22:00 +24°C° 0 mm 3 mps 764 mmHg 75%
    23:00 +22°C° 0.1 mm 3 mps 764 mmHg 76%

    Tomorrow, 16 December, Sunday

    Time Temperature Precipitation Wind Pressure Humidity
    00:00 +22°C° 0.1 mm 3 mps 764 mmHg 77%
    01:00 +23°C° 0.1 mm 2 mps 764 mmHg 78%
    02:00 +22°C° 0.1 mm 3 mps 764 mmHg 78%
    03:00 +21°C° 0.1 mm 3 mps 764 mmHg 77%
    04:00 +21°C° 0.1 mm 3 mps 764 mmHg 76%
    05:00 +21°C° 0 mm 3 mps 764 mmHg 75%
    06:00 +21°C° 0 mm 3 mps 765 mmHg 75%
    07:00 +21°C° 0 mm 3 mps 765 mmHg 74%
    08:00 +22°C° 0 mm 3 mps 765 mmHg 69%
    09:00 +23°C° 0 mm 4 mps 766 mmHg 64%
    10:00 +25°C° 0 mm 4 mps 766 mmHg 59%
    11:00 +25°C° 0 mm 3 mps 765 mmHg 58%
    12:00 +26°C° 0 mm 3 mps 765 mmHg 56%
    13:00 +27°C° 0 mm 2 mps 764 mmHg 54%
    14:00 +26°C° 0 mm 2 mps 764 mmHg 56%
    15:00 +26°C° 0 mm 2 mps 764 mmHg 57%
    16:00 +25°C° 0 mm 3 mps 763 mmHg 59%
    17:00 +25°C° 0 mm 2 mps 764 mmHg 60%
    18:00 +24°C° 0 mm 2 mps 764 mmHg 62%
    19:00 +24°C° 0 mm 2 mps 764 mmHg 63%
    20:00 +23°C° 0 mm 2 mps 765 mmHg 63%
    21:00 +23°C° 0 mm 2 mps 765 mmHg 64%
    22:00 +23°C° 0 mm 2 mps 765 mmHg 64%
    23:00 +21°C° 0 mm 2 mps 765 mmHg 65%

    Day after tomorrow, 17 December, Monday

    Time Temperature Precipitation Wind Pressure Humidity
    00:00 +21°C° 0 mm 3 mps 764 mmHg 67%
    01:00 +20°C° 0 mm 3 mps 764 mmHg 68%
    02:00 +20°C° 0 mm 3 mps 764 mmHg 70%
    03:00 +19°C° 0 mm 3 mps 764 mmHg 71%
    04:00 +19°C° 0 mm 3 mps 763 mmHg 73%
    05:00 +19°C° 0 mm 3 mps 764 mmHg 76%
    06:00 +18°C° 0 mm 3 mps 764 mmHg 78%
    07:00 +18°C° 0 mm 3 mps 764 mmHg 81%
    08:00 +19°C° 0 mm 3 mps 765 mmHg 74%
    09:00 +21°C° 0 mm 4 mps 765 mmHg 67%
    10:00 +22°C° 0 mm 4 mps 765 mmHg 61%
    11:00 +24°C° 0 mm 3 mps 765 mmHg 56%
    12:00 +25°C° 0 mm 3 mps 764 mmHg 52%
    13:00 +26°C° 0 mm 3 mps 764 mmHg 47%
    14:00 +26°C° 0 mm 3 mps 764 mmHg 47%
    15:00 +26°C° 0 mm 3 mps 763 mmHg 46%
    16:00 +26°C° 0 mm 3 mps 763 mmHg 46%
    17:00 +25°C° 0 mm 3 mps 763 mmHg 50%
    18:00 +24°C° 0 mm 3 mps 764 mmHg 53%
    19:00 +22°C° 0 mm 3 mps 764 mmHg 57%
    20:00 +21°C° 0 mm 3 mps 764 mmHg 59%
    21:00 +20°C° 0 mm 3 mps 764 mmHg 62%
    22:00 +19°C° 0 mm 3 mps 765 mmHg 64%
    23:00 +19°C° 0 mm 3 mps 764 mmHg 65%

    18 December, Tuesday

    Time Temperature Precipitation Wind Pressure Humidity
    00:00 +19°C° 0 mm 3 mps 764 mmHg 65%
    01:00 +18°C° 0 mm 2 mps 763 mmHg 66%
    02:00 +18°C° 0 mm 3 mps 763 mmHg 67%
    03:00 +18°C° 0 mm 3 mps 763 mmHg 67%
    04:00 +17°C° 0 mm 3 mps 763 mmHg 68%
    05:00 +17°C° 0 mm 3 mps 763 mmHg 69%
    06:00 +17°C° 0 mm 3 mps 764 mmHg 69%
    07:00 +17°C° 0 mm 2 mps 764 mmHg 70%
    08:00 +18°C° 0 mm 2 mps 764 mmHg 65%
    09:00 +20°C° 0 mm 2 mps 765 mmHg 60%
    10:00 +21°C° 0 mm 2 mps 765 mmHg 55%
    11:00 +24°C° 0 mm 2 mps 765 mmHg 52%
    12:00 +25°C° 0 mm 1 mps 764 mmHg 48%
    13:00 +26°C° 0 mm 1 mps 763 mmHg 45%
    14:00 +26°C° 0 mm 1 mps 763 mmHg 44%
    15:00 +26°C° 0 mm 1 mps 763 mmHg 42%
    16:00 +26°C° 0 mm 2 mps 763 mmHg 41%
    17:00 +25°C° 0 mm 2 mps 763 mmHg 46%
    18:00 +24°C° 0 mm 2 mps 763 mmHg 51%
    19:00 +22°C° 0 mm 3 mps 764 mmHg 56%
    20:00 +21°C° 0 mm 3 mps 764 mmHg 59%
    21:00 +21°C° 0 mm 3 mps 764 mmHg 62%
    22:00 +20°C° 0 mm 3 mps 764 mmHg 66%
    23:00 +20°C° 0 mm 3 mps 764 mmHg 67%

    19 December, Wednesday

    Time Temperature Precipitation Wind Pressure Humidity
    00:00 +20°C° 0 mm 3 mps 764 mmHg 69%
    01:00 +20°C° 0 mm 3 mps 764 mmHg 70%
    02:00 +19°C° 0 mm 3 mps 763 mmHg 71%
    03:00 +19°C° 0 mm 3 mps 763 mmHg 72%
    04:00 +19°C° 0 mm 3 mps 763 mmHg 73%
    05:00 +19°C° 0 mm 3 mps 764 mmHg 73%
    06:00 +19°C° 0 mm 3 mps 764 mmHg 74%
    07:00 +19°C° 0 mm 3 mps 764 mmHg 74%
    08:00 +20°C° 0 mm 3 mps 765 mmHg 68%
    09:00 +22°C° 0 mm 3 mps 765 mmHg 62%
    10:00 +25°C° 0 mm 4 mps 765 mmHg 55%
    11:00 +26°C° 0 mm 4 mps 765 mmHg 52%
    12:00 +27°C° 0 mm 4 mps 764 mmHg 50%
    13:00 +28°C° 0 mm 4 mps 764 mmHg 47%
    14:00 +27°C° 0 mm 4 mps 763 mmHg 48%
    15:00 +27°C° 0 mm 4 mps 763 mmHg 49%
    16:00 +27°C° 0 mm 4 mps 763 mmHg 50%
    17:00 +26°C° 0 mm 4 mps 763 mmHg 56%
    18:00 +25°C° 0 mm 4 mps 763 mmHg 61%
    19:00 +24°C° 0 mm 3 mps 763 mmHg 66%
    20:00 +24°C° 0 mm 3 mps 764 mmHg 68%
    21:00 +24°C° 0 mm 3 mps 764 mmHg 70%
    22:00 +24°C° 0 mm 3 mps 764 mmHg 73%
    23:00 +24°C° 0 mm 3 mps 763 mmHg 74%

    20 December, Thursday

    Time Temperature Precipitation Wind Pressure Humidity
    00:00 +24°C° 0 mm 2 mps 763 mmHg 74%
    01:00 +24°C° 0 mm 2 mps 763 mmHg 75%
    02:00 +23°C° 0 mm 2 mps 763 mmHg 77%
    03:00 +23°C° 0 mm 1 mps 763 mmHg 78%
    04:00 +23°C° 0 mm 1 mps 762 mmHg 80%
    05:00 +23°C° 0.3 mm 1 mps 763 mmHg 81%
    06:00 +23°C° 0.3 mm 2 mps 763 mmHg 83%
    07:00 +23°C° 0.3 mm 2 mps 763 mmHg 84%
    08:00 +22°C° 0.3 mm 3 mps 763 mmHg 82%
    09:00 +24°C° 0.3 mm 3 mps 763 mmHg 80%
    10:00 +23°C° 0.3 mm 4 mps 763 mmHg 78%
    11:00 +25°C° 0 mm 4 mps 763 mmHg 73%
    12:00 +26°C° 0 mm 4 mps 762 mmHg 67%
    13:00 +27°C° 0 mm 3 mps 762 mmHg 62%
    14:00 +26°C° 0.5 mm 3 mps 762 mmHg 67%
    15:00 +25°C° 0.5 mm 2 mps 761 mmHg 73%
    16:00 +24°C° 0.5 mm 2 mps 761 mmHg 78%
    17:00 +24°C° 1.3 mm 2 mps 761 mmHg 81%
    18:00 +23°C° 1.3 mm 2 mps 762 mmHg 84%
    19:00 +23°C° 1.3 mm 1 mps 762 mmHg 86%
    20:00 +23°C° 0.5 mm 2 mps 762 mmHg 87%
    21:00 +23°C° 0.5 mm 2 mps 762 mmHg 87%
    22:00 +23°C° 0.5 mm 2 mps 762 mmHg 87%
    23:00 +23°C° 0 mm 2 mps 762 mmHg 87%
    Show more